Weather History for KDEN - February, 2013

Change the Weather History Date:

Sunday, February 3, 2013

  Actual Average Record
Temperature  
Mean Temperature 39 °F 31 °F  
Max Temperature 55 °F 45 °F 70 °F (1954)
Min Temperature 23 °F 17 °F -18 °F (1883)
Degree Days  
Heating Degree Days 26 34  
Month to date heating degree days 81 102  
Since 1 July heating degree days 3381 3633  
Cooling Degree Days 0 0  
Month to date cooling degree days 0 0  
Year to date cooling degree days 0 0  
Moisture  
Dew Point 14 °F    
Average Humidity 41    
Maximum Humidity 68    
Minimum Humidity 14    
Precipitation  
Precipitation 0.00 in 0.02 in 0.57 in (2012)
Month to date precipitation 0.00 0.04  
Year to date precipitation 0.31 0.45  
Snow  
Snow 0.00 in - - ()
Month to date snowfall 0  
Since 1 July snowfall 17  
Snow Depth 0.00 in    
Sea Level Pressure  
Sea Level Pressure 30.00 in    
Wind  
Wind Speed 6 mph (SSW)    
Max Wind Speed 16 mph    
Max Gust Speed 18 mph    
Visibility 10 miles    
Events      
T = Trace of Precipitation, MM = Missing Value Source: NWS Daily Summary

Daily Weather History Graph

Daily Weather History Graph

Search for Another Location

Airport or City:

Trip Planner

Search our weather history database for the weather conditions in past years. The results will help you decide how hot, cold, wet, or windy it might be!

Date:

Astronomy

Feb. 03, 2013 Rise Set
Actual Time 7:04 AM MST 5:20 PM MST
Civil Twilight 6:36 AM MST 5:49 PM MST
Nautical Twilight 6:03 AM MST 6:21 PM MST
Astronomical Twilight 5:32 AM MST 6:53 PM MST
Moon 12:34 AM MST (2/3) 11:00 AM MST (2/3)
Length of Visible Light 11h 13m
Length of Day
10h 16m
Waning Gibbous, 48% of the Moon is Illuminated
Feb 3
Waning Gibbous
Feb 10
New
Feb 17
First Quarter
Feb 25
Full
Mar 4
Last Quarter

Hourly Weather History & Observations

Time (MST) Temp. Windchill Dew Point Humidity Pressure Visibility Wind Dir Wind Speed Gust Speed Precip Events Conditions
12:53 AM 24.1 °F 12.5 °F 14.0 °F 65% 30.19 in 10.0 mi South 12.7 mph - N/A   Mostly Cloudy
1:53 AM 25.0 °F 14.8 °F 15.1 °F 66% 30.15 in 10.0 mi SSE 10.4 mph - N/A   Mostly Cloudy
2:53 AM 28.9 °F 19.8 °F 15.1 °F 56% 30.12 in 10.0 mi South 10.4 mph - N/A   Mostly Cloudy
3:53 AM 30.0 °F 21.7 °F 14.0 °F 51% 30.12 in 10.0 mi SW 9.2 mph - N/A   Mostly Cloudy
4:53 AM 30.0 °F 20.0 °F 14.0 °F 51% 30.13 in 10.0 mi SW 12.7 mph - N/A   Mostly Cloudy
5:53 AM 30.9 °F 20.7 °F 14.0 °F 50% 30.12 in 10.0 mi SW 13.8 mph - N/A   Mostly Cloudy
6:53 AM 30.0 °F 20.0 °F 12.9 °F 49% 30.14 in 10.0 mi WSW 12.7 mph - N/A   Mostly Cloudy
7:53 AM 30.0 °F 24.1 °F 12.9 °F 49% 30.12 in 10.0 mi WSW 5.8 mph - N/A   Mostly Cloudy
8:53 AM 33.1 °F 26.9 °F 15.1 °F 48% 30.08 in 10.0 mi WSW 6.9 mph - N/A   Mostly Cloudy
9:53 AM 41.0 °F 39.0 °F 12.0 °F 31% 30.03 in 10.0 mi West 3.5 mph - N/A   Mostly Cloudy
10:53 AM 46.0 °F - 10.0 °F 23% 30.01 in 10.0 mi Calm Calm - N/A   Mostly Cloudy
11:53 AM 52.0 °F - 5.0 °F 15% 29.95 in 10.0 mi Calm Calm - N/A   Mostly Cloudy
12:53 PM 53.1 °F - 9.0 °F 17% 29.89 in 10.0 mi East 3.5 mph - N/A   Overcast
1:53 PM 52.0 °F - 14.0 °F 22% 29.87 in 10.0 mi East 5.8 mph - N/A   Overcast
2:53 PM 48.9 °F - 18.0 °F 29% 29.85 in 10.0 mi NE 4.6 mph - N/A   Overcast
3:53 PM 48.9 °F - 16.0 °F 27% 29.85 in 10.0 mi Calm Calm - N/A   Overcast
4:53 PM 43.0 °F 39.5 °F 19.0 °F 38% 29.87 in 10.0 mi NNE 5.8 mph - N/A   Overcast
5:53 PM 39.9 °F - 21.0 °F 47% 29.89 in 10.0 mi Calm Calm - N/A   Overcast
6:53 PM 39.0 °F - 21.0 °F 49% 29.90 in 10.0 mi Calm Calm - N/A   Overcast
7:53 PM 34.0 °F 28.8 °F 18.0 °F 52% 29.92 in 10.0 mi SW 5.8 mph - N/A   Mostly Cloudy
8:53 PM 32.0 °F 23.0 °F 17.1 °F 54% 29.93 in 10.0 mi WSW 11.5 mph - N/A   Scattered Clouds
9:53 PM 33.1 °F 27.7 °F 12.9 °F 43% 29.91 in 10.0 mi SW 5.8 mph - N/A   Scattered Clouds
10:53 PM 33.1 °F - 12.0 °F 42% 29.90 in 10.0 mi Calm Calm - N/A   Clear
11:53 PM 28.9 °F 21.1 °F 10.9 °F 47% 29.91 in 10.0 mi SSE 8.1 mph - N/A   Clear